• In Hungary
  • List of Countries
  • For 7 days
  • Water Temperature
  • Satellite Maps
  • Weather Map
  • News
  • Weather Widgets
  • user-avatar
    Login

    Hourly Weather Hadera

    Today, 20 November, Monday

    Time Temperature Precipitation Wind Pressure Humidity
    00:00 +15°C° 0.9 mm 4 mps 717 mmHg 82%
    01:00 +14°C° 0.9 mm 3 mps 717 mmHg 83%
    02:00 +14°C° 0 mm 3 mps 717 mmHg 87%
    03:00 +14°C° 0.6 mm 3 mps 717 mmHg 87%
    04:00 +15°C° 0.6 mm 2 mps 717 mmHg 87%
    05:00 +14°C° 0.6 mm 2 mps 717 mmHg 88%
    06:00 +15°C° 0.3 mm 2 mps 717 mmHg 85%
    07:00 +15°C° 0.3 mm 2 mps 717 mmHg 82%
    08:00 +16°C° 0 mm 3 mps 716 mmHg 79%
    09:00 +17°C° 0.4 mm 3 mps 716 mmHg 76%
    10:00 +17°C° 0.4 mm 3 mps 716 mmHg 72%
    11:00 +18°C° 0.4 mm 3 mps 716 mmHg 69%
    12:00 +18°C° 0.7 mm 4 mps 716 mmHg 68%
    13:00 +18°C° 0.7 mm 4 mps 716 mmHg 68%
    14:00 +17°C° 0 mm 5 mps 715 mmHg 68%
    15:00 +16°C° 0.8 mm 5 mps 715 mmHg 72%
    16:00 +15°C° 0.8 mm 5 mps 715 mmHg 76%
    17:00 +15°C° 0.8 mm 5 mps 715 mmHg 80%
    18:00 +15°C° 0.6 mm 5 mps 715 mmHg 81%
    19:00 +14°C° 0.6 mm 6 mps 715 mmHg 82%
    20:00 +14°C° 0.6 mm 6 mps 714 mmHg 83%
    21:00 +14°C° 0.5 mm 7 mps 714 mmHg 82%
    22:00 +14°C° 0.5 mm 7 mps 714 mmHg 81%
    23:00 +13°C° 0.5 mm 8 mps 714 mmHg 80%

    Tomorrow, 21 November, Tuesday

    Time Temperature Precipitation Wind Pressure Humidity
    00:00 +13°C° 0.9 mm 9 mps 713 mmHg 82%
    01:00 +13°C° 0.9 mm 10 mps 713 mmHg 83%
    02:00 +13°C° 0.9 mm 11 mps 713 mmHg 84%
    03:00 +12°C° 0.3 mm 11 mps 713 mmHg 79%
    04:00 +12°C° 0.3 mm 12 mps 712 mmHg 75%
    05:00 +12°C° 0.3 mm 13 mps 712 mmHg 70%
    06:00 +12°C° 0 mm 13 mps 713 mmHg 67%
    07:00 +12°C° 0 mm 12 mps 713 mmHg 64%
    08:00 +12°C° 0 mm 12 mps 713 mmHg 61%
    09:00 +12°C° 0 mm 11 mps 713 mmHg 59%
    10:00 +12°C° 0 mm 10 mps 714 mmHg 57%
    11:00 +13°C° 0 mm 10 mps 714 mmHg 56%
    12:00 +13°C° 0 mm 9 mps 714 mmHg 55%
    13:00 +13°C° 0 mm 9 mps 714 mmHg 54%
    14:00 +13°C° 0 mm 8 mps 714 mmHg 54%
    15:00 +12°C° 0 mm 8 mps 715 mmHg 55%
    16:00 +12°C° 0 mm 8 mps 715 mmHg 57%
    17:00 +11°C° 0 mm 7 mps 715 mmHg 58%
    18:00 +11°C° 0 mm 7 mps 715 mmHg 57%
    19:00 +11°C° 0 mm 7 mps 716 mmHg 56%
    20:00 +11°C° 0 mm 6 mps 716 mmHg 55%
    21:00 +10°C° 0 mm 6 mps 716 mmHg 55%
    22:00 +10°C° 0 mm 6 mps 717 mmHg 56%
    23:00 +10°C° 0 mm 6 mps 717 mmHg 56%

    Day after tomorrow, 22 November, Wednesday

    Time Temperature Precipitation Wind Pressure Humidity
    00:00 +10°C° 0 mm 6 mps 717 mmHg 56%
    01:00 +10°C° 0 mm 5 mps 717 mmHg 56%
    02:00 +9°C° 0 mm 5 mps 717 mmHg 56%
    03:00 +9°C° 0 mm 5 mps 717 mmHg 56%
    04:00 +9°C° 0 mm 5 mps 717 mmHg 57%
    05:00 +8°C° 0 mm 4 mps 717 mmHg 57%
    06:00 +10°C° 0 mm 4 mps 718 mmHg 55%
    07:00 +10°C° 0 mm 4 mps 718 mmHg 53%
    08:00 +11°C° 0 mm 4 mps 718 mmHg 51%
    09:00 +12°C° 0 mm 3 mps 719 mmHg 46%
    10:00 +13°C° 0 mm 3 mps 719 mmHg 42%
    11:00 +14°C° 0 mm 3 mps 719 mmHg 38%
    12:00 +14°C° 0 mm 3 mps 719 mmHg 38%
    13:00 +14°C° 0 mm 4 mps 719 mmHg 37%
    14:00 +14°C° 0 mm 4 mps 719 mmHg 37%
    15:00 +13°C° 0 mm 4 mps 719 mmHg 40%
    16:00 +12°C° 0 mm 4 mps 719 mmHg 42%
    17:00 +11°C° 0 mm 3 mps 719 mmHg 45%
    18:00 +11°C° 0 mm 3 mps 719 mmHg 47%
    19:00 +11°C° 0 mm 3 mps 720 mmHg 48%
    20:00 +10°C° 0 mm 3 mps 720 mmHg 49%
    21:00 +10°C° 0 mm 3 mps 720 mmHg 50%
    22:00 +10°C° 0 mm 2 mps 720 mmHg 51%
    23:00 +9°C° 0 mm 2 mps 720 mmHg 52%

    23 November, Thursday

    Time Temperature Precipitation Wind Pressure Humidity
    00:00 +9°C° 0 mm 2 mps 720 mmHg 52%
    01:00 +9°C° 0 mm 2 mps 720 mmHg 52%
    02:00 +9°C° 0 mm 2 mps 720 mmHg 52%
    03:00 +9°C° 0 mm 2 mps 720 mmHg 52%
    04:00 +9°C° 0 mm 2 mps 720 mmHg 52%
    05:00 +9°C° 0 mm 2 mps 720 mmHg 52%
    06:00 +10°C° 0 mm 2 mps 720 mmHg 50%
    07:00 +12°C° 0 mm 2 mps 721 mmHg 49%
    08:00 +13°C° 0 mm 2 mps 721 mmHg 47%
    09:00 +14°C° 0 mm 2 mps 721 mmHg 45%
    10:00 +14°C° 0 mm 3 mps 721 mmHg 43%
    11:00 +16°C° 0 mm 3 mps 721 mmHg 40%
    12:00 +16°C° 0 mm 3 mps 721 mmHg 41%
    13:00 +16°C° 0 mm 3 mps 721 mmHg 42%
    14:00 +15°C° 0 mm 4 mps 720 mmHg 43%
    15:00 +14°C° 0 mm 4 mps 720 mmHg 48%
    16:00 +13°C° 0 mm 3 mps 720 mmHg 52%
    17:00 +12°C° 0 mm 3 mps 720 mmHg 56%
    18:00 +12°C° 0 mm 3 mps 720 mmHg 58%
    19:00 +12°C° 0 mm 3 mps 720 mmHg 60%
    20:00 +13°C° 0 mm 2 mps 721 mmHg 62%
    21:00 +11°C° 0 mm 3 mps 721 mmHg 63%
    22:00 +11°C° 0 mm 3 mps 721 mmHg 64%
    23:00 +11°C° 0 mm 3 mps 721 mmHg 65%

    24 November, Friday

    Time Temperature Precipitation Wind Pressure Humidity
    00:00 +11°C° 0 mm 3 mps 721 mmHg 65%
    01:00 +11°C° 0 mm 3 mps 720 mmHg 66%
    02:00 +11°C° 0 mm 3 mps 720 mmHg 67%
    03:00 +11°C° 0 mm 3 mps 720 mmHg 69%
    04:00 +11°C° 0 mm 3 mps 720 mmHg 71%
    05:00 +11°C° 0 mm 3 mps 720 mmHg 73%
    06:00 +13°C° 0 mm 2 mps 720 mmHg 71%
    07:00 +14°C° 0 mm 2 mps 721 mmHg 68%
    08:00 +15°C° 0 mm 2 mps 721 mmHg 65%
    09:00 +16°C° 0 mm 2 mps 721 mmHg 60%
    10:00 +17°C° 0 mm 2 mps 722 mmHg 55%
    11:00 +18°C° 0 mm 2 mps 722 mmHg 50%
    12:00 +18°C° 0 mm 2 mps 721 mmHg 49%
    13:00 +18°C° 0 mm 2 mps 721 mmHg 48%
    14:00 +18°C° 0 mm 2 mps 721 mmHg 47%
    15:00 +17°C° 0 mm 2 mps 721 mmHg 51%
    16:00 +16°C° 0 mm 2 mps 721 mmHg 54%
    17:00 +15°C° 0 mm 2 mps 721 mmHg 58%
    18:00 +14°C° 0 mm 1 mps 721 mmHg 60%
    19:00 +14°C° 0 mm 1 mps 722 mmHg 62%
    20:00 +13°C° 0 mm 1 mps 722 mmHg 64%
    21:00 +13°C° 0 mm 1 mps 722 mmHg 66%
    22:00 +13°C° 0 mm 1 mps 722 mmHg 67%
    23:00 +13°C° 0 mm 1 mps 722 mmHg 69%

    25 November, Saturday

    Time Temperature Precipitation Wind Pressure Humidity
    00:00 +12°C° 0 mm 1 mps 722 mmHg 70%
    01:00 +12°C° 0 mm 1 mps 722 mmHg 71%
    02:00 +12°C° 0 mm 1 mps 722 mmHg 72%
    03:00 +12°C° 0 mm 1 mps 722 mmHg 73%
    04:00 +11°C° 0 mm 1 mps 722 mmHg 74%
    05:00 +11°C° 0 mm 1 mps 722 mmHg 75%
    06:00 +12°C° 0 mm 2 mps 722 mmHg 71%
    07:00 +13°C° 0 mm 2 mps 722 mmHg 67%
    08:00 +13°C° 0 mm 3 mps 722 mmHg 63%
    09:00 +14°C° 0 mm 3 mps 722 mmHg 59%
    10:00 +16°C° 0 mm 3 mps 722 mmHg 55%
    11:00 +17°C° 0 mm 3 mps 722 mmHg 50%
    12:00 +16°C° 0 mm 3 mps 722 mmHg 53%
    13:00 +16°C° 0 mm 3 mps 722 mmHg 55%
    14:00 +16°C° 0 mm 3 mps 721 mmHg 58%
    15:00 +14°C° 0 mm 3 mps 721 mmHg 61%
    16:00 +14°C° 0 mm 3 mps 722 mmHg 64%
    17:00 +13°C° 0 mm 3 mps 722 mmHg 67%
    18:00 +13°C° 0 mm 3 mps 722 mmHg 67%
    19:00 +12°C° 0 mm 4 mps 722 mmHg 68%
    20:00 +12°C° 0 mm 4 mps 722 mmHg 68%
    21:00 +12°C° 0 mm 4 mps 722 mmHg 67%
    22:00 +12°C° 0 mm 4 mps 722 mmHg 66%
    23:00 +11°C° 0 mm 4 mps 722 mmHg 65%
    Show more